Simultaneous Nadir Overpasses (SNOs) Predictions

Prediction of SNOs between AURA and NPP Satellite Orbit:

Table of predicted SNOs for the next 14.0 days since TLE Epoch: 11/9/2019
Index Date (AURA) Time (AURA) Lat,Lon (AURA) SZA (AURA ) Date (NPP) Time (NPP) Lat,Lon (NPP) SZA (NPP ) Distance(km) Time Diff (sec)
1 11/09/2019 11:24:50 -79.62, 86.35 71.92 11/09/2019 11:24:44 -79.63, 86.49 71.95 2.99 6
2 11/09/2019 12:14:10 79.84,-104.38 107.79 11/09/2019 12:15:22 79.84,-104.32 107.72 1.12 72
3 11/12/2019 02:52:00 79.36, 32.82 109.16 11/12/2019 02:51:01 79.36, 32.71 109.23 2.22 59
4 11/12/2019 03:41:20 -79.64,-157.65 71.20 11/12/2019 03:41:38 -79.63,-157.72 71.20 1.51 18
5 11/14/2019 19:08:27 79.49, 149.55 109.71 11/14/2019 19:07:51 79.49, 149.55 109.74 0.18 36
6 11/14/2019 19:57:47 -79.76, -40.86 70.66 11/14/2019 19:58:28 -79.76, -40.81 70.70 1.01 41
7 11/17/2019 11:24:53 79.61, -93.74 110.23 11/17/2019 11:24:40 79.62, -93.59 110.21 3.16 13
8 11/17/2019 12:14:16 -79.77, 75.07 69.98 11/17/2019 12:15:21 -79.76, 74.96 70.01 2.31 65
9 11/20/2019 02:52:02 -79.43,-146.74 68.90 11/20/2019 02:50:55 -79.44,-146.63 68.87 2.56 67
10 11/20/2019 03:41:22 79.65, 22.42 110.83 11/20/2019 03:41:33 79.65, 22.43 110.82 0.31 11
11 11/22/2019 19:08:31 -79.47, -30.62 68.33 11/22/2019 19:07:48 -79.47, -30.61 68.30 0.46 43




NCC Satellite Simultaneous Nadir Overpasses (SNOs) Prediction Service
